Vorticity
16 11 5 2 4 8 7 9 9 8 8 9 7 7 6 7 4 7 8 8 7 8 8 8 8 7 10 10 7 8 5 4 4 1 2 5 6 18 9 6 3 5 -5 3 14 6 3
15 -5 5 2 13 10 -1 1 3 8 10 9 9 7 9 8 5 7 8 8 9 9 7 7 9 7 4 5 6 9 8 2 -3 8 3 12 13 9 10 3 3 1 1 0 3 11 7
1 8 -0 16 14 6 21 16 14 7 2 5 8 11 10 10 8 5 8 7 8 5 7 3 3 4 2 3 4 4 1 -1 5 11 10 6 11 12 8 5 5 2 2 -1 12 9 16
-2 0 1 5 8 8 1 6 -3 10 15 14 -3 5 4 7 7 7 5 7 0 0 1 -2 0 -0 4 6 3 10 -0 7 14 3 11 -1 13 8 4 2 2 -0 5 6 6 -1 8
12 8 7 4 18 1 2 14 -5 9 1 -2 4 8 8 5 6 3 2 -1 1 0 10 5 8 15 7 6 8 10 10 13 10 6 6 8 16 13 1 2 -0 0 0 6 12 12 10
-11 2 26 1 -5 9 4 14 18 8 -0 -3 -6 3 1 9 -0 11 7 10 9 18 10 16 8 15 16 14 10 7 12 2 12 11 12 11 6 13 9 7 1 3 7 12 10 16 11
-23 -5 1 -1 9 -6 4 12 -5 -15 -6 2 5 7 11 -2 1 14 12 5 13 15 7 8 11 4 6 3 16 11 4 12 11 8 3 4 8 11 8 9 11 5 9 8 6 4 8
-1 -2 6 5 -7 -7 -3 3 -19 -3 10 -3 7 6 18 -0 6 11 10 6 4 5 6 8 11 11 9 12 16 11 10 11 8 8 11 8 8 10 7 8 13 15 11 8 8 11 10
12 14 12 -2 8 4 -3 -9 -9 13 2 7 10 -0 -12 4 7 7 5 3 8 7 3 0 9 8 12 8 9 8 5 3 7 6 4 6 8 11 3 9 7 7 8 8 9 8 9
9 16 10 16 -3 -8 3 -0 -1 0 2 6 -1 12 7 27 3 6 -2 -2 10 2 8 4 3 8 11 6 6 3 6 7 3 2 8 8 16 14 13 13 11 10 13 10 9 8 5
6 9 11 14 11 16 16 13 2 21 1 3 11 3 4 -1 8 6 3 9 10 3 3 10 5 2 11 7 7 4 2 5 11 16 10 7 6 8 10 9 10 8 6 7 7 6 6
15 11 10 12 12 10 10 18 10 -0 6 5 -6 14 25 7 8 5 13 8 9 15 -2 1 4 10 9 7 11 11 12 11 -0 1 4 4 4 6 6 8 8 6 6 5 4 4 4
40 18 10 16 12 17 14 9 13 19 16 1 25 2 16 29 19 10 11 12 19 -15 5 -1 3 7 3 5 3 5 4 -1 -1 3 10 10 9 4 4 7 8 7 7 5 7 8 6
3 18 63 72 14 15 20 14 17 13 11 16 27 18 18 23 13 16 17 20 -4 4 16 12 9 10 8 6 6 7 8 9 5 7 10 8 8 4 6 8 5 7 8 8 15 13 11
19 38 24 -15 62 48 21 5 41 32 7 9 14 23 17 23 16 17 13 4 -8 20 15 12 9 7 4 -0 -1 1 5 2 2 8 8 7 6 6 8 13 10 13 10 7 12 8 9
-14 16 -20 9 -3 17 20 25 -20 14 25 15 5 17 20 6 10 26 15 -4 12 25 9 9 10 10 8 6 4 4 3 4 7 6 6 5 9 9 10 9 11 10 5 10 10 9 12
16 30 35 20 8 -5 29 25 15 14 16 28 9 5 16 19 -8 2 8 17 15 10 11 9 6 10 7 5 2 5 12 10 5 7 4 6 11 13 11 12 9 8 8 11 11 3 10
50 22 -3 -10 1 -14 -26 9 41 -2 19 19 18 14 13 10 12 11 11 14 14 13 4 8 7 5 9 11 9 7 7 6 8 4 9 18 10 8 10 6 7 11 11 18 15 10 18
36 53 48 34 25 23 -5 -48 13 -2 19 23 21 4 11 12 1 -3 7 10 9 4 5 3 7 8 9 7 10 9 9 8 13 18 12 12 4 8 14 12 12 15 20 16 6 8 -3
29 41 13 -16 52 30 21 26 -8 10 5 5 21 14 4 13 6 15 11 8 5 6 4 5 5 9 9 9 12 8 6 13 10 10 8 7 5 5 5 7 -1 -6 2 -3 -1 6 9
24 44 20 10 -10 32 28 -7 -2 8 -1 -26 -4 19 13 13 10 4 8 13 10 8 7 10 13 11 19 11 9 11 11 5 6 8 6 4 5 17 7 0 7 4 6 14 6 6 11
36 21 53 -0 21 -36 16 5 7 8 0 19 20 -2 6 -6 -2 12 29 19 11 14 8 9 8 6 13 12 8 4 6 4 2 5 5 11 9 5 2 4 6 11 7 1 3 9 17
34 29 33 15 5 7 12 28 15 25 1 14 15 5 22 18 12 10 5 -2 16 20 16 16 20 14 13 9 7 10 7 8 10 8 6 10 4 9 7 13 7 3 7 6 5 11 8
26 45 37 37 15 14 2 3 41 7 -12 -10 7 24 6 21 16 9 7 15 16 19 16 12 10 9 12 8 10 10 11 10 10 10 14 10 7 4 -2 16 14 14 12 8 -0 1 21
36 34 26 33 -6 16 22 10 9 4 -14 33 20 17 -6 30 18 14 11 14 9 7 5 9 7 13 12 14 9 7 9 8 12 14 11 14 15 13 3 10 6 18 9 -1 14 19 -1
-14 34 30 23 -19 -28 29 15 9 2 20 10 12 10 17 11 13 13 12 12 12 11 10 12 12 13 13 15 14 10 11 12 12 16 17 12 15 17 21 27 5 7 6 21 18 24 24
4 9 59 10 -16 4 20 37 11 2 9 13 17 2 4 14 19 15 10 15 17 13 13 16 15 16 12 11 12 12 10 16 10 11 16 15 27 14 20 37 2 10 19 11 12 24 15
-7 20 12 40 12 -34 -3 -3 11 9 22 14 29 36 32 -5 -0 5 12 11 21 11 17 19 15 14 16 9 4 5 3 1 10 14 16 15 9 22 -4 17 19 14 8 7 9 18 13
10 11 11 -18 -3 8 22 9 17 19 18 16 18 14 21 14 10 2 2 12 10 9 14 15 8 8 19 14 29 20 13 20 28 3 31 22 0 11 1 6 6 11 10 9 12 14 20
Height
5723 5726 5729 5732 5735 5739 5743 5746 5749 5752 5756 5760 5762 5765 5767 5770 5772 5776 5777 5779 5780 5782 5785 5787 5788 5790 5792 5793 5792 5794 5796 5796 5797 5797 5798 5799 5799 5799 5800 5801 5801 5802 5803 5804 5804 5804 5804
5709 5711 5715 5717 5720 5725 5729 5733 5736 5740 5743 5747 5750 5753 5756 5759 5760 5763 5767 5769 5771 5773 5775 5778 5780 5781 5784 5786 5785 5786 5786 5788 5789 5789 5790 5790 5791 5792 5793 5793 5793 5795 5795 5795 5795 5794 5794
5695 5698 5701 5703 5707 5711 5715 5718 5723 5727 5731 5735 5738 5741 5745 5748 5750 5751 5756 5758 5761 5763 5766 5767 5771 5772 5775 5775 5777 5777 5778 5779 5780 5781 5781 5782 5783 5784 5785 5785 5785 5785 5786 5785 5785 5785 5785
5679 5683 5686 5689 5692 5696 5700 5705 5709 5713 5717 5721 5726 5729 5734 5737 5740 5740 5744 5748 5750 5753 5755 5757 5760 5762 5765 5765 5766 5769 5770 5770 5771 5772 5772 5774 5775 5775 5777 5777 5777 5777 5775 5775 5776 5777 5775
5662 5667 5672 5674 5678 5680 5684 5689 5695 5699 5702 5708 5712 5717 5720 5724 5728 5729 5733 5736 5740 5743 5744 5746 5750 5751 5753 5755 5756 5758 5759 5761 5761 5763 5763 5764 5765 5766 5767 5769 5768 5767 5765 5765 5765 5766 5764
5643 5648 5654 5657 5662 5665 5669 5674 5679 5682 5687 5693 5699 5704 5707 5712 5715 5717 5721 5724 5728 5730 5734 5735 5738 5741 5742 5746 5747 5747 5749 5750 5751 5752 5753 5755 5755 5756 5759 5758 5757 5758 5758 5756 5755 5755 5751
5622 5629 5635 5639 5645 5650 5655 5661 5662 5666 5672 5677 5684 5689 5693 5698 5701 5704 5709 5711 5717 5720 5722 5726 5728 5729 5731 5736 5736 5737 5738 5740 5741 5742 5744 5745 5746 5749 5747 5747 5748 5748 5747 5746 5746 5743 5743
5601 5608 5615 5619 5625 5630 5637 5644 5647 5651 5657 5662 5668 5673 5678 5684 5688 5691 5696 5699 5702 5708 5712 5714 5717 5720 5721 5723 5724 5726 5728 5731 5732 5734 5735 5737 5736 5736 5737 5737 5737 5737 5736 5737 5735 5733 5733
5578 5583 5591 5597 5603 5611 5617 5624 5630 5634 5640 5647 5653 5658 5664 5668 5674 5677 5682 5685 5690 5693 5698 5706 5706 5710 5712 5711 5714 5717 5718 5721 5724 5725 5726 5725 5726 5727 5727 5726 5727 5726 5726 5726 5725 5725 5723
5553 5560 5565 5574 5580 5588 5597 5604 5611 5617 5621 5628 5635 5642 5648 5654 5660 5662 5667 5672 5678 5681 5685 5693 5697 5697 5700 5701 5703 5706 5709 5713 5714 5715 5715 5714 5718 5716 5716 5717 5716 5716 5716 5715 5716 5715 5714
5528 5535 5543 5550 5557 5565 5573 5583 5590 5597 5605 5609 5616 5625 5632 5637 5643 5644 5651 5655 5662 5669 5673 5680 5683 5688 5687 5690 5695 5696 5698 5700 5704 5703 5704 5706 5706 5706 5707 5706 5704 5706 5705 5705 5705 5704 5704
5500 5509 5518 5527 5536 5542 5550 5560 5568 5575 5583 5592 5598 5605 5613 5619 5624 5625 5632 5638 5645 5653 5660 5666 5670 5674 5676 5678 5681 5684 5688 5689 5693 5693 5694 5695 5695 5696 5696 5695 5695 5694 5693 5693 5692 5692 5695
5473 5482 5494 5503 5514 5523 5529 5538 5547 5555 5563 5571 5577 5586 5597 5602 5600 5605 5614 5618 5627 5638 5649 5654 5658 5659 5661 5665 5669 5672 5676 5678 5680 5684 5684 5683 5683 5684 5685 5685 5684 5683 5681 5679 5681 5681 5682
5455 5460 5473 5480 5493 5502 5512 5521 5526 5534 5543 5552 5560 5568 5578 5584 5580 5587 5592 5597 5609 5632 5634 5639 5642 5646 5649 5651 5656 5659 5662 5666 5668 5669 5671 5672 5674 5673 5674 5673 5672 5671 5670 5669 5668 5667 5667
5433 5446 5457 5465 5476 5483 5496 5508 5512 5516 5525 5532 5541 5555 5563 5567 5563 5569 5571 5577 5605 5619 5619 5623 5627 5631 5636 5639 5642 5646 5648 5652 5655 5658 5659 5659 5659 5660 5661 5661 5662 5663 5661 5660 5657 5656 5654
5413 5425 5435 5452 5461 5470 5479 5489 5497 5501 5508 5515 5527 5537 5551 5546 5548 5552 5553 5572 5595 5601 5603 5605 5612 5617 5624 5629 5628 5633 5634 5640 5644 5646 5645 5647 5646 5647 5648 5649 5649 5651 5651 5650 5647 5645 5641
5392 5400 5414 5429 5445 5456 5464 5471 5481 5486 5492 5500 5510 5522 5534 5529 5533 5534 5539 5572 5583 5587 5589 5593 5599 5604 5612 5616 5617 5620 5623 5628 5631 5633 5634 5634 5635 5637 5637 5640 5640 5638 5639 5638 5636 5635 5633
5373 5383 5395 5408 5422 5436 5453 5462 5469 5473 5478 5483 5495 5505 5516 5514 5514 5518 5535 5566 5569 5571 5573 5578 5585 5593 5600 5603 5604 5607 5612 5616 5619 5621 5621 5622 5623 5624 5627 5628 5628 5627 5628 5628 5625 5627 5625
5356 5363 5375 5391 5404 5421 5437 5447 5459 5460 5466 5469 5480 5493 5499 5498 5498 5508 5530 5544 5549 5557 5558 5564 5573 5580 5586 5590 5591 5595 5599 5603 5605 5607 5609 5612 5613 5614 5615 5617 5617 5618 5619 5618 5618 5617 5617
5343 5348 5361 5376 5389 5404 5420 5435 5445 5452 5454 5460 5464 5474 5480 5482 5490 5501 5516 5527 5534 5542 5546 5553 5560 5565 5571 5575 5579 5583 5588 5590 5594 5596 5599 5600 5601 5603 5605 5607 5607 5607 5609 5609 5607 5605 5606
5334 5338 5349 5363 5376 5391 5407 5419 5428 5437 5444 5447 5452 5457 5469 5474 5483 5493 5502 5515 5522 5530 5534 5538 5544 5552 5557 5561 5566 5569 5573 5578 5582 5584 5586 5588 5587 5589 5594 5595 5594 5595 5598 5598 5595 5596 5593
5326 5329 5337 5353 5366 5380 5396 5409 5418 5426 5432 5433 5442 5449 5460 5469 5477 5484 5490 5500 5510 5520 5521 5528 5535 5542 5544 5548 5553 5558 5560 5563 5567 5571 5574 5577 5577 5577 5580 5582 5581 5581 5585 5586 5585 5587 5585
5319 5321 5328 5342 5359 5375 5388 5396 5404 5411 5421 5419 5432 5441 5449 5457 5463 5469 5480 5495 5504 5506 5511 5516 5523 5526 5531 5540 5539 5542 5546 5550 5555 5559 5562 5564 5567 5568 5569 5571 5569 5566 5578 5577 5575 5576 5577
5313 5316 5323 5336 5353 5367 5377 5384 5390 5401 5408 5417 5426 5434 5441 5448 5454 5463 5471 5480 5488 5494 5500 5503 5508 5513 5521 5523 5525 5529 5534 5539 5543 5549 5551 5554 5556 5557 5557 5557 5553 5560 5564 5564 5563 5567 5566
5310 5316 5320 5332 5349 5359 5367 5375 5382 5390 5399 5407 5416 5425 5434 5437 5445 5453 5462 5470 5476 5481 5490 5494 5500 5505 5509 5513 5515 5518 5522 5526 5535 5537 5539 5542 5543 5544 5543 5544 5546 5547 5553 5555 5553 5557 5555
5309 5314 5321 5330 5342 5352 5363 5369 5375 5382 5390 5398 5407 5415 5422 5428 5436 5444 5450 5460 5466 5471 5479 5487 5491 5493 5498 5501 5504 5505 5509 5516 5520 5526 5528 5529 5532 5533 5531 5529 5532 5542 5544 5544 5542 5543 5544
5307 5314 5322 5328 5338 5347 5352 5360 5368 5375 5383 5391 5400 5407 5412 5417 5426 5434 5443 5451 5456 5463 5471 5477 5481 5483 5486 5491 5494 5497 5503 5506 5509 5513 5518 5517 5520 5523 5520 5520 5525 5533 5534 5532 5533 5537 5532
5304 5311 5317 5325 5334 5340 5345 5354 5361 5369 5378 5385 5391 5396 5402 5410 5418 5424 5432 5440 5447 5454 5461 5467 5470 5473 5478 5481 5485 5488 5492 5496 5498 5503 5507 5510 5510 5514 5514 5513 5519 5524 5524 5524 5524 5523 5523
5302 5308 5315 5322 5330 5337 5344 5351 5358 5366 5371 5378 5384 5389 5394 5402 5409 5417 5425 5433 5440 5446 5451 5456 5463 5468 5472 5475 5478 5481 5485 5488 5493 5495 5496 5498 5501 5504 5508 5511 5512 5514 5514 5515 5515 5516 5516